Temp
6 7 8 9 9 9 10 15 17 13 12 19 22 20 19 13 19 19 19 20 20 21 19 20 20 20 19 17 18 18 19 17 18 20 22 23 20 19 20 19 18 20 19 19
6 7 7 8 9 10 14 17 18 14 13 20 20 17 17 18 18 19 19 18 19 19 19 19 18 18 16 16 17 17 17 18 18 22 21 21 20 20 20 19 19 17 17 18
6 6 7 8 8 10 10 17 15 17 17 18 20 18 17 16 16 17 18 18 18 18 18 18 18 17 16 15 16 11 13 16 16 17 18 19 17 18 18 18 16 16 17 17
6 6 7 8 8 9 10 15 16 15 16 18 19 19 19 17 16 17 17 17 18 18 17 17 17 17 16 15 14 14 15 14 16 17 17 17 17 17 17 17 17 15 16 16
6 6 7 8 9 9 12 12 14 15 16 18 18 15 17 18 17 17 16 17 17 17 17 18 17 16 16 16 16 15 16 14 14 14 17 17 16 16 16 16 16 17 17 17
5 6 7 8 9 10 13 9 10 15 12 16 17 17 18 18 16 14 16 17 16 15 16 15 15 15 15 15 14 14 14 13 13 13 15 14 13 16 16 17 17 16 15 16
5 5 6 7 8 9 10 10 13 13 13 16 17 15 16 17 15 15 14 15 15 13 13 13 14 13 13 13 14 14 13 13 13 12 13 11 16 18 17 16 16 17 17 17
5 5 5 6 6 7 8 8 12 14 13 16 13 14 15 14 12 13 13 13 13 12 12 13 12 13 13 15 15 14 14 13 11 10 11 13 15 17 16 15 14 16 16 16
4 5 5 5 6 6 6 5 8 11 11 13 14 14 13 13 13 11 12 11 11 11 13 11 9 12 14 14 15 15 14 13 12 11 9 10 15 16 17 16 13 16 14 14
4 4 5 5 5 6 6 5 5 10 7 11 13 13 13 14 15 15 12 10 10 11 12 12 11 12 14 13 14 14 13 13 11 11 9 12 15 16 15 9 12 12 11 11
4 4 4 5 5 5 6 4 5 9 8 10 10 11 12 12 14 13 12 11 10 11 11 12 11 11 13 12 14 14 13 13 12 13 11 11 16 15 11 11 9 9 9 9
3 4 4 4 4 5 6 7 5 6 8 8 7 8 8 9 10 13 11 12 11 12 11 11 12 10 11 12 12 15 12 13 13 12 13 15 14 13 13 11 9 8 7 6
3 3 4 3 4 5 6 6 6 7 6 7 8 9 8 7 7 8 11 11 12 11 11 9 9 7 11 10 12 13 14 14 12 12 13 13 12 12 11 9 6 6 5 5
3 3 3 3 3 4 4 5 5 7 7 5 7 7 7 7 7 8 8 9 9 10 11 6 6 7 10 9 11 10 12 12 11 11 13 11 10 9 7 5 5 3 4 4
2 3 3 4 4 4 4 4 4 4 6 6 7 8 8 7 8 8 8 8 9 8 6 4 6 8 7 8 9 9 12 13 10 8 9 6 5 6 5 3 1 4 3 4
3 3 4 4 4 4 4 4 4 3 4 6 6 8 8 8 8 8 8 8 9 7 6 6 7 8 7 7 9 12 14 13 11 7 6 5 5 5 3 1 4 5 4 3
3 3 4 4 4 4 5 5 5 3 4 4 6 6 7 6 5 4 5 6 5 6 5 5 7 8 6 6 7 11 13 11 8 7 4 3 4 1 1 2 3 4 5 5
3 3 4 4 4 4 5 4 4 4 3 4 5 6 6 6 5 4 4 4 4 4 5 6 6 7 6 6 10 12 10 7 7 4 3 3 2 1 2 3 3 1 0 0
2 3 3 3 4 4 5 4 4 4 5 4 6 7 7 8 5 4 4 4 4 5 4 6 7 8 7 10 11 6 4 2 1 1 3 3 1 0 1 1 2 1 -1 -1
3 3 4 4 4 3 3 3 4 4 4 5 6 10 7 8 7 5 5 5 6 6 7 8 6 9 11 11 8 3 1 0 -1 -1 -0 -1 -0 0 -1 -1 -1 -1 -2 -3
3 4 4 3 3 3 4 3 3 4 4 4 6 9 8 10 7 7 8 6 7 7 8 8 8 9 10 8 5 2 0 -1 -2 -2 -2 -2 -1 -0 -2 -2 -3 -3 -3 -3
2 2 3 3 2 3 3 5 7 6 8 7 6 7 8 5 9 8 6 7 7 7 8 6 8 11 9 6 4 2 -0 -2 -2 -3 -3 -3 -2 -3 -3 -3 -4 -4 -4 -5
2 2 3 3 4 4 5 6 7 8 8 7 6 5 6 6 8 7 7 5 7 9 7 8 11 11 7 6 3 0 -1 -2 -2 -3 -4 -4 -4 -4 -4 -4 -5 -5 -5 -5
3 3 3 4 5 7 9 10 10 10 9 8 6 6 6 5 5 5 6 9 9 7 7 9 12 10 6 4 1 0 -2 -2 -3 -3 -4 -4 -4 -4 -4 -5 -5 -5 -5 -6
2 2 4 6 8 9 8 9 10 9 9 7 6 5 5 6 6 7 8 7 7 8 10 12 10 7 5 2 1 -0 -1 -2 -2 -3 -3 -4 -4 -4 -4 -5 -5 -6 -6 -7
1 2 4 7 6 7 7 7 8 9 8 7 6 6 7 7 8 7 7 8 9 12 12 10 8 4 2 1 0 -1 -1 -1 -1 -2 -2 -3 -3 -3 -4 -5 -5 -6 -6 -6
3 4 6 7 6 7 7 7 8 8 7 6 7 7 8 9 8 8 10 9 12 11 10 10 9 5 3 2 1 -1 0 1 1 0 -0 -1 -2 -3 -3 -3 -4 -5 -6 -7
Height
815 816 814 817 825 829 834 829 823 829 833 825 809 821 824 836 829 830 830 829 828 828 835 834 835 837 842 851 847 844 841 844 838 820 803 802 815 819 817 820 816 804 805 785
815 817 816 822 827 829 829 822 819 829 831 812 813 828 832 829 834 829 832 835 834 836 835 840 840 845 854 855 849 851 847 835 834 801 809 810 814 811 814 816 815 814 813 788
821 822 820 823 825 827 832 822 828 824 824 816 807 824 828 836 838 838 837 836 836 838 840 841 842 846 854 860 855 867 863 847 843 836 828 825 824 819 818 820 820 813 798 791
821 825 822 824 827 828 832 825 819 821 818 816 814 818 820 829 838 839 839 841 834 836 842 842 845 844 849 855 858 858 854 849 838 833 831 828 824 820 815 816 812 815 796 791
825 827 825 824 827 828 828 829 824 823 820 811 816 826 824 823 830 835 840 840 838 838 840 840 843 848 850 849 850 853 850 851 844 840 828 823 820 817 811 810 805 799 792 783
827 828 828 826 826 828 827 834 830 822 827 820 819 819 820 821 831 847 839 840 843 847 847 851 853 854 853 853 856 853 854 852 850 838 830 832 826 808 802 801 799 797 792 783
831 834 830 827 827 830 830 831 828 825 826 819 819 825 827 826 834 837 846 847 848 858 860 860 858 859 857 855 854 855 853 851 852 848 841 843 803 797 800 798 793 788 780 773
837 838 832 831 832 832 831 830 831 824 824 820 834 832 832 837 848 844 849 855 857 862 863 858 858 851 850 843 843 845 848 852 854 861 844 824 810 798 803 802 793 789 781 774
841 839 836 835 835 834 833 829 835 833 832 831 830 834 837 838 841 851 854 863 864 864 856 862 870 852 843 840 838 840 844 850 852 852 861 844 803 803 799 796 789 782 789 786
841 840 839 839 837 836 836 837 836 835 841 840 838 836 835 835 836 836 852 860 862 864 855 856 859 851 846 846 839 834 842 843 844 846 853 828 805 803 804 822 794 799 801 796
843 842 841 840 841 837 838 840 838 839 844 847 847 846 842 843 840 843 851 857 861 861 858 853 858 856 846 848 838 837 838 837 832 826 837 830 803 802 818 812 809 806 802 796
844 844 843 843 841 840 840 844 844 845 845 850 853 851 851 850 851 844 855 851 853 853 852 853 851 862 862 849 843 832 840 834 833 835 823 811 813 813 813 810 806 802 800 796
844 844 845 845 843 844 843 846 849 848 849 851 850 849 853 854 856 856 853 856 856 859 860 864 866 874 861 856 839 835 826 828 831 832 820 819 817 815 814 816 813 804 797 788
843 844 846 847 847 848 848 850 850 848 850 855 852 853 854 855 857 858 860 862 864 862 863 873 878 875 866 860 847 850 840 835 832 826 817 822 823 825 822 816 810 800 789 776
845 846 846 847 847 848 849 850 851 852 855 854 851 853 852 855 856 859 862 863 862 865 874 879 875 871 875 865 859 848 832 824 835 837 834 840 830 826 822 816 804 791 785 777
847 848 848 849 850 850 850 853 851 852 855 857 852 853 854 855 856 857 859 862 863 868 874 876 870 868 872 866 849 830 824 827 835 844 842 839 835 829 825 817 800 790 786 784
848 848 850 849 850 850 850 851 852 853 856 859 856 852 855 858 861 862 865 863 867 870 877 875 867 866 872 864 849 829 823 833 840 842 844 837 834 834 827 817 804 792 786 783
849 848 851 851 851 852 852 853 853 856 858 859 857 852 856 856 858 863 865 866 870 873 871 868 864 862 865 854 829 824 831 840 840 845 845 842 841 835 827 818 809 803 797 795
850 851 853 853 852 853 852 853 855 856 858 857 851 843 839 849 853 859 864 865 868 867 867 859 856 846 847 829 821 837 845 849 849 847 842 839 838 836 830 823 817 812 810 808
850 852 853 855 853 852 854 855 855 854 852 850 845 832 839 843 845 854 858 861 856 852 849 846 847 830 823 823 834 844 849 851 852 848 842 843 840 838 834 830 828 824 820 819
850 851 851 854 853 853 853 853 853 850 849 847 842 832 833 837 840 842 844 847 847 842 836 836 829 819 814 828 838 845 850 851 852 850 848 845 842 839 837 837 836 833 829 826
853 853 854 855 855 854 853 842 836 839 825 832 835 834 834 844 839 838 847 843 844 838 836 841 825 807 818 831 839 845 850 851 851 850 848 847 845 843 842 842 840 840 838 836
855 855 853 852 850 846 837 830 826 820 819 828 833 838 838 841 839 841 841 846 839 829 835 825 801 807 824 831 839 846 849 850 851 851 850 850 849 848 846 845 845 846 846 844
852 851 849 841 832 821 805 804 802 807 814 822 829 833 833 841 841 841 837 826 825 828 825 808 795 806 824 832 839 844 848 849 851 851 852 852 851 851 850 849 849 849 851 852
851 846 833 817 809 804 807 808 806 812 816 823 829 834 833 831 832 828 825 827 824 816 800 790 802 815 825 833 838 842 846 848 850 851 853 853 852 853 853 853 854 855 855 856
845 838 824 811 809 807 809 812 811 813 816 824 827 824 820 820 818 822 822 812 800 788 790 801 812 821 828 833 837 840 844 846 848 850 851 853 853 854 855 857 858 859 860 861
827 812 810 806 808 805 805 809 809 811 817 820 817 812 808 805 810 808 802 800 788 792 799 803 809 818 826 830 834 839 841 843 844 846 848 850 853 855 856 857 860 861 863 864
Wind_Speed
11 9 9 7 4 10 11 3 4 3 6 7 4 6 2 3 7 3 2 1 1 3 2 2 2 2 4 1 5 6 6 6 11 19 19 10 5 9 11 10 17 16 17 23
11 9 8 5 7 13 7 4 2 3 6 6 7 5 5 1 5 6 5 3 2 2 3 3 3 3 4 1 3 5 8 3 10 3 6 8 5 4 12 15 16 23 18 21
10 8 7 3 5 12 3 2 4 4 5 3 6 10 8 7 1 4 2 5 4 5 5 3 3 6 5 3 5 4 3 7 11 11 17 16 22 21 20 19 15 21 23 30
11 9 8 3 3 9 4 2 2 2 6 8 7 9 10 11 7 4 7 4 8 8 4 4 5 4 5 8 5 5 4 9 14 16 19 20 23 22 23 22 22 21 28 31
12 10 10 5 3 6 4 2 2 3 2 6 11 6 10 12 8 8 7 8 7 5 6 5 1 4 4 6 5 7 5 8 13 18 18 16 21 20 23 21 21 23 24 27
13 12 11 9 4 6 3 1 2 5 4 8 9 9 8 11 11 1 5 7 6 5 2 4 5 6 8 7 8 8 8 5 8 6 11 20 15 10 10 14 17 20 22 24
13 11 13 14 8 6 3 2 2 2 3 7 8 5 8 10 11 4 5 2 4 6 3 5 7 9 11 12 13 11 8 7 5 10 14 4 5 14 21 22 22 20 24 24
10 10 14 15 14 14 10 6 1 1 3 6 4 8 9 10 6 7 7 4 6 3 2 3 3 3 4 8 12 12 12 8 4 4 8 20 21 4 17 20 26 23 25 25
8 10 12 13 13 12 10 13 4 3 4 4 6 10 11 7 7 6 6 4 3 1 2 1 2 4 2 2 3 9 8 10 8 7 10 8 11 22 21 18 20 18 22 25
7 9 11 12 12 12 10 9 8 3 3 2 5 5 9 1 5 3 7 7 5 4 4 4 4 3 2 4 5 5 8 9 13 11 10 12 18 14 23 11 20 29 30 28
6 8 10 11 11 13 10 8 12 5 3 4 1 1 4 4 5 4 9 6 3 5 5 3 3 3 3 5 9 7 6 5 8 9 9 11 14 32 22 23 23 27 26 27
4 5 7 7 10 12 10 7 8 7 5 3 1 1 3 6 9 3 6 3 4 4 3 0 2 2 3 6 4 1 4 6 8 7 11 25 25 24 25 23 27 30 27 25
1 3 4 5 6 9 10 8 7 5 4 2 1 2 4 4 3 3 2 1 3 3 5 3 2 4 6 4 6 12 9 10 10 13 10 19 24 28 26 25 26 29 29 28
1 1 1 2 2 3 6 5 6 4 4 1 2 2 2 2 8 7 2 6 4 3 1 3 1 2 4 5 9 13 10 12 9 16 20 25 19 25 26 29 29 27 26 24
2 1 0 1 1 1 2 2 3 3 4 1 1 2 4 1 6 10 10 8 4 4 1 1 3 1 3 8 9 9 9 5 7 10 20 15 25 26 28 25 30 23 22 16
2 1 1 1 2 3 3 3 1 4 3 0 2 1 4 2 6 9 11 10 5 3 2 3 3 5 4 4 6 10 12 4 12 7 14 16 21 20 28 25 25 19 15 11
3 3 2 2 4 2 2 2 2 10 6 1 2 3 3 7 6 3 2 2 3 1 2 3 4 4 3 3 12 12 12 10 13 10 13 12 13 14 25 24 27 21 15 10
4 5 2 3 6 3 1 4 10 11 4 1 1 3 5 12 3 3 3 3 2 3 3 2 4 3 3 5 11 9 7 13 9 13 12 11 13 18 19 22 19 17 18 19
4 5 3 2 2 2 0 6 7 5 4 2 3 3 3 8 2 3 2 2 3 5 4 4 4 5 6 11 7 4 6 7 11 14 12 12 12 13 14 15 15 14 14 17
5 3 2 0 1 2 5 3 2 1 1 2 3 6 3 6 5 3 4 3 3 3 6 3 4 7 15 2 3 2 3 6 8 10 10 13 12 11 11 12 12 13 16 19
2 0 2 1 1 2 2 2 3 3 3 4 4 9 5 4 4 4 5 3 2 3 4 4 3 4 6 8 5 4 2 4 5 7 7 9 9 8 8 9 12 14 17 20
2 2 1 2 2 2 4 4 4 4 3 6 4 4 2 1 3 2 0 3 3 4 4 2 3 4 10 8 6 4 3 3 4 5 7 9 11 10 9 10 12 14 17 20
1 2 2 3 4 6 6 7 4 4 5 6 6 5 4 3 3 2 4 5 5 2 3 3 3 9 8 8 8 6 6 5 5 6 8 9 10 11 11 13 15 15 16 18
3 3 6 6 6 6 6 8 4 4 4 9 8 6 3 2 4 3 4 5 2 3 4 5 5 10 9 8 8 8 7 7 7 8 9 10 11 12 13 14 14 16 16 15
4 4 5 9 8 5 2 5 1 3 6 9 5 3 3 4 4 3 4 3 4 4 5 2 6 9 10 9 8 8 9 8 9 9 9 11 12 14 15 14 14 15 16 18
3 5 6 6 5 6 4 4 6 6 7 6 2 4 4 5 3 6 6 3 5 3 5 5 7 9 9 9 10 10 11 11 11 11 11 11 12 13 15 15 15 15 16 17
6 7 9 8 3 5 7 8 7 11 7 6 4 6 7 4 4 5 5 4 3 4 4 3 6 10 10 12 12 12 12 12 12 12 12 13 14 14 14 14 14 14 14 14
Wind_Direction
99 94 92 100 167 167 176 209 225 125 188 209 196 201 169 337 156 176 127 302 356 232 182 172 222 221 14 32 330 318 18 305 284 283 282 302 315 287 289 277 288 289 302 279
84 83 90 119 173 174 175 226 99 175 219 207 192 118 137 158 185 182 180 151 274 232 185 217 226 179 103 333 312 1 3 251 306 251 132 175 247 320 307 293 285 276 279 281
83 75 88 102 162 184 223 233 170 156 215 318 209 179 175 146 302 151 212 136 178 179 197 210 185 199 181 263 272 66 306 264 268 282 304 303 294 296 295 288 279 287 279 291
78 64 68 85 155 170 209 289 240 27 188 201 204 196 168 164 163 220 206 192 213 198 223 219 221 224 185 222 213 254 251 272 281 291 298 294 290 291 285 281 279 276 286 287
74 57 54 62 149 163 228 153 196 201 113 169 185 169 204 180 136 168 196 261 196 210 237 248 292 244 214 266 160 256 263 278 301 292 288 296 298 290 288 283 275 272 281 287
66 56 46 53 132 150 164 195 258 283 122 181 195 190 174 191 145 207 322 231 186 214 337 7 339 316 300 284 272 279 279 284 317 284 329 316 295 283 305 298 290 291 288 294
63 55 56 54 76 134 122 132 195 140 168 196 198 152 171 179 178 150 150 163 224 72 29 305 256 255 258 256 249 242 252 268 277 292 312 262 272 316 307 294 286 277 280 287
73 57 57 58 68 82 104 91 284 198 148 174 157 159 165 117 133 127 143 110 58 70 294 279 324 214 252 232 228 224 225 252 267 266 290 288 283 344 340 318 305 304 296 294
89 70 60 50 55 81 80 62 40 57 117 198 154 165 165 156 168 146 137 111 105 157 244 202 238 224 282 237 255 191 217 220 250 262 286 278 312 323 317 318 288 302 341 329
81 62 55 48 47 69 73 58 49 80 83 87 198 168 189 166 172 158 138 153 156 229 198 222 224 260 340 258 245 206 218 234 241 253 257 263 282 340 332 300 306 330 313 305
79 54 45 48 56 72 73 59 38 50 109 132 1 135 151 153 229 172 122 142 198 184 216 212 227 277 240 280 275 279 277 283 281 285 288 280 337 328 320 315 310 307 302 296
75 46 45 54 65 70 71 73 46 44 87 86 133 260 324 22 24 35 184 43 144 156 217 11 349 216 278 283 280 343 262 238 293 290 278 305 305 311 320 325 321 317 312 304
302 3 35 53 59 73 76 71 43 66 70 79 355 198 208 211 252 349 156 235 64 164 3 66 64 252 295 277 275 290 284 312 290 308 283 303 318 317 328 325 317 312 306 303
100 113 97 63 53 68 98 69 47 63 70 87 129 129 175 194 196 185 161 88 99 66 108 81 187 233 296 273 295 301 287 296 276 288 297 329 304 319 323 319 314 309 318 310
122 123 340 349 79 56 125 123 90 59 352 81 84 159 150 204 188 198 203 198 192 111 104 117 212 204 253 259 269 263 236 317 316 300 319 316 304 318 324 324 315 328 340 340
106 49 248 224 235 223 193 39 51 189 127 118 131 59 176 130 179 194 187 191 206 110 155 207 225 258 270 259 264 260 271 330 339 325 311 310 304 322 331 320 324 339 350 331
70 60 336 207 147 160 62 16 112 155 143 109 200 162 136 117 92 53 67 138 90 134 191 229 246 226 195 257 255 272 281 347 329 333 339 317 334 324 321 332 356 359 0 356
82 82 80 139 145 102 155 109 134 142 117 179 255 182 188 182 148 129 124 141 137 199 236 231 224 208 211 255 262 241 345 335 321 345 329 305 326 327 346 352 15 33 38 45
107 118 128 170 151 177 93 163 167 248 248 197 203 216 150 169 99 106 145 157 175 176 213 226 207 206 220 242 275 2 350 329 314 327 329 350 349 347 357 7 18 45 51 58
142 156 146 261 293 220 136 123 209 255 345 271 246 228 156 197 163 144 145 183 229 218 212 172 235 247 244 179 93 71 345 333 332 334 351 348 347 353 13 19 26 58 71 77
176 201 134 215 129 176 203 197 225 175 227 195 231 242 158 188 186 150 200 167 200 249 163 229 226 245 183 138 125 116 42 1 344 340 347 351 1 12 27 40 50 66 78 81
126 202 247 140 197 205 218 213 187 221 242 156 188 188 178 186 172 152 202 214 182 254 142 231 249 153 135 140 138 122 101 64 44 27 27 26 32 41 52 60 64 69 83 88
230 276 206 211 176 232 215 194 199 206 184 161 161 146 150 152 188 195 183 210 223 189 208 234 266 137 148 144 140 128 116 101 89 80 73 67 61 58 69 80 79 81 86 95
220 212 213 221 195 235 213 233 208 183 147 149 169 152 139 121 173 206 216 211 188 229 232 229 216 147 146 140 140 138 130 119 106 97 95 93 86 81 81 86 91 97 90 86
227 221 229 220 232 237 31 309 182 120 146 150 150 122 195 171 186 205 217 195 234 226 237 184 105 128 147 149 148 146 141 139 126 122 115 109 106 100 95 94 97 98 99 99
228 237 247 245 276 241 206 225 233 166 164 146 214 171 197 178 193 188 211 232 225 206 203 101 133 154 156 156 155 154 155 147 143 140 132 121 117 115 112 107 104 104 106 107
220 222 229 253 267 260 227 211 226 182 168 192 205 201 190 155 193 208 195 221 291 86 109 128 150 162 164 157 156 157 162 161 155 146 139 132 130 131 130 122 123 119 115 110